Погода в Воронино

Россия / Новгородская область     58°33′56″N   30°35′49″E
темп.,
°C
ветер,
м/с
пор.,
м/с
влажн.,
%
обл.,
%
осадки,
мм/ч
давл.,
гПа
погр.,
м
20 апреля, вт
вт2000:00+5в28645 0.0 1025206
03:00+3всв287261 0.0 1024176
06:00+2в288045 0.0 1023179
09:00+6в47675 0.0 1022531
12:00+9вюв5758100 0.1 10201363
15:00+9вюв464688 0.1 10201219
18:00+10вюв364973 0.0 10171477
21:00+7вюв3870100 0.0 1017363
21 апреля, ср
ср2100:00+4вюв238346 0.0 101556
03:00+3в269281 0.0 1013150
06:00+2всв249792 0.0 1011104
09:00+4ссв2485100 0.0 1009639
12:00+5с3583100 0.1 1006766
15:00+7с2571100 0.1 1005930
18:00+6всв1284100 0.0 1005145
21:00+4вюв229799 0.0 100571
22 апреля, чт
чт2200:00+2ююв239858 0.0 100563
03:00+2ююв229599 0.0 100632
06:00+2ююв24935 0.1 100661
09:00+8ююз35735 0.1 1006360
12:00+13ююз355661 0.1 10061144
15:00+15ююз473899 0.1 10062554
18:00+14ююв475030 0.0 10061275
21:00+8ююз31088100 0.9 1007720
23 апреля, пт
пт2300:00+5ююз2691100 1.5 1008191
03:00+4ю2589100 1.5 1008139
06:00+5ююз2788100 0.0 1008309
09:00+4ю3677100 0.3 1008447
12:00+8ю475999 0.0 10081802
15:00+9ю5948100 0.3 10081983
18:00+9юз485015 0.3 10091823
21:00+4ю226951 0.3 100915
24 апреля, сб
сб2400:00+2ююз25788 0.0 101096
03:00+1юз26855 0.0 1009121
06:00−1юз23945 0.0 100970
09:00+4ююз24645 0.0 1009635
12:00+7ююз345399 0.2 10081667
15:00+8ююз3544100 0.4 10081891
18:00+8ююз354310 0.1 10081963
21:00+3ююз226911 0.1 100819